Time,TemperatureF,DewpointF,PressureIn,WindDirection,WindDirectionDegrees,WindSpeedMPH,WindSpeedGustMPH,Humidity,HourlyPrecipIn,Conditions,Clouds,dailyrainin,SoftwareType,DateUTC
2013-12-22 00:14:00,71.8,67.0,29.79,SSE,148,4.0,-999.0,84,-99.99,,,0.12,weatherlink.com 1.10,2013-12-22 06:14:00,
2013-12-22 00:29:00,71.6,67.0,29.79,SSE,149,12.0,-999.0,85,-99.99,,,0.12,weatherlink.com 1.10,2013-12-22 06:29:00,
2013-12-22 00:44:00,71.7,67.0,29.78,SW,228,15.0,-999.0,84,-99.99,,,0.12,weatherlink.com 1.10,2013-12-22 06:44:00,
2013-12-22 00:59:00,71.7,67.0,29.79,SW,219,6.0,-999.0,84,-99.99,,,0.12,weatherlink.com 1.10,2013-12-22 06:59:00,
2013-12-22 01:14:00,71.7,67.0,29.78,SSW,201,12.0,-999.0,85,-99.99,,,0.12,weatherlink.com 1.10,2013-12-22 07:14:00,
2013-12-22 01:29:00,70.9,67.0,29.77,SSW,194,1.0,-999.0,87,-99.99,,,0.13,weatherlink.com 1.10,2013-12-22 07:29:00,
2013-12-22 01:44:00,71.0,67.0,29.77,South,180,0.0,-999.0,86,-99.99,,,0.13,weatherlink.com 1.10,2013-12-22 07:44:00,
2013-12-22 01:59:00,71.4,67.0,29.77,WSW,254,2.0,-999.0,86,-99.99,,,0.15,weatherlink.com 1.10,2013-12-22 07:59:00,
2013-12-22 02:14:00,69.7,67.0,29.75,West,269,1.0,-999.0,91,-99.99,,,0.19,weatherlink.com 1.10,2013-12-22 08:14:00,
2013-12-22 02:29:00,69.6,67.0,29.77,SSE,153,9.0,-999.0,91,-99.99,,,0.19,weatherlink.com 1.10,2013-12-22 08:29:00,
2013-12-22 02:44:00,66.1,62.0,29.81,SSW,212,1.0,-999.0,85,-99.99,,,0.53,weatherlink.com 1.10,2013-12-22 08:44:00,
2013-12-22 02:59:00,57.9,55.0,29.82,WSW,246,0.0,-999.0,91,-99.99,,,1.27,weatherlink.com 1.10,2013-12-22 08:59:00,
2013-12-22 03:14:00,56.3,54.0,29.84,WNW,286,6.0,-999.0,93,-99.99,,,1.49,weatherlink.com 1.10,2013-12-22 09:14:00,
2013-12-22 03:29:00,55.9,54.0,29.85,WNW,293,2.0,-999.0,94,-99.99,,,1.59,weatherlink.com 1.10,2013-12-22 09:29:00,
2013-12-22 03:44:00,55.5,54.0,29.84,WSW,250,3.0,-999.0,95,-99.99,,,1.85,weatherlink.com 1.10,2013-12-22 09:44:00,
2013-12-22 03:59:00,55.3,54.0,29.85,West,259,0.0,-999.0,95,-99.99,,,1.90,weatherlink.com 1.10,2013-12-22 09:59:00,
2013-12-22 04:14:00,55.3,54.0,29.83,West,280,0.0,-999.0,95,-99.99,,,1.97,weatherlink.com 1.10,2013-12-22 10:14:00,
2013-12-22 04:29:00,55.3,54.0,29.85,West,280,0.0,-999.0,96,-99.99,,,2.01,weatherlink.com 1.10,2013-12-22 10:29:00,
2013-12-22 04:44:00,55.3,54.0,29.87,SSE,163,0.0,-999.0,96,-99.99,,,2.05,weatherlink.com 1.10,2013-12-22 10:44:00,
2013-12-22 04:59:00,55.2,54.0,29.90,SW,222,0.0,-999.0,96,-99.99,,,0.05,weatherlink.com 1.10,2013-12-22 10:59:00,
2013-12-22 05:14:00,55.0,54.0,29.89,West,280,1.0,-999.0,96,-99.99,,,0.18,weatherlink.com 1.10,2013-12-22 11:14:00,
2013-12-22 05:30:00,54.7,54.0,29.89,SSE,163,0.0,-999.0,96,-99.99,,,0.29,weatherlink.com 1.10,2013-12-22 11:30:00,
2013-12-22 05:45:00,54.4,53.0,29.88,SSE,165,0.0,-999.0,96,-99.99,,,0.30,weatherlink.com 1.10,2013-12-22 11:45:00,
2013-12-22 06:00:00,54.2,53.0,29.88,West,271,0.0,-999.0,96,-99.99,,,0.32,weatherlink.com 1.10,2013-12-22 12:00:00,
2013-12-22 06:15:00,54.1,53.0,29.90,South,169,0.0,-999.0,96,-99.99,,,0.37,weatherlink.com 1.10,2013-12-22 12:15:00,
2013-12-22 06:30:00,54.0,53.0,29.91,SE,140,0.0,-999.0,96,-99.99,,,0.46,weatherlink.com 1.10,2013-12-22 12:30:00,
2013-12-22 06:45:00,53.8,53.0,29.91,SSW,209,1.0,-999.0,96,-99.99,,,0.55,weatherlink.com 1.10,2013-12-22 12:45:00,
2013-12-22 07:00:00,53.7,53.0,29.91,SSE,148,6.0,-999.0,96,-99.99,,,0.68,weatherlink.com 1.10,2013-12-22 13:00:00,
2013-12-22 07:15:00,53.9,53.0,29.92,SE,134,4.0,-999.0,96,-99.99,,,0.82,weatherlink.com 1.10,2013-12-22 13:15:00,
2013-12-22 07:30:00,54.0,53.0,29.95,WNW,297,1.0,-999.0,96,-99.99,,,0.86,weatherlink.com 1.10,2013-12-22 13:30:00,
2013-12-22 07:45:00,54.0,53.0,29.93,ENE,74,0.0,-999.0,96,-99.99,,,0.88,weatherlink.com 1.10,2013-12-22 13:45:00,
2013-12-22 08:00:00,54.0,53.0,29.94,SSW,209,2.0,-999.0,96,-99.99,,,0.88,weatherlink.com 1.10,2013-12-22 14:00:00,
2013-12-22 08:15:00,54.1,53.0,29.93,SE,146,4.0,-999.0,96,-99.99,,,0.88,weatherlink.com 1.10,2013-12-22 14:15:00,
2013-12-22 08:30:00,54.1,53.0,29.96,SE,140,6.0,-999.0,96,-99.99,,,0.88,weatherlink.com 1.10,2013-12-22 14:30:00,
2013-12-22 08:45:00,54.0,53.0,29.94,ESE,110,5.0,-999.0,96,-99.99,,,0.88,weatherlink.com 1.10,2013-12-22 14:45:00,
2013-12-22 09:00:00,54.0,53.0,29.96,WNW,290,0.0,-999.0,96,-99.99,,,0.89,weatherlink.com 1.10,2013-12-22 15:00:00,
2013-12-22 09:15:00,54.0,53.0,29.95,SSE,167,2.0,-999.0,96,-99.99,,,0.90,weatherlink.com 1.10,2013-12-22 15:15:00,
2013-12-22 09:30:00,54.1,53.0,29.97,WNW,290,1.0,-999.0,96,-99.99,,,0.90,weatherlink.com 1.10,2013-12-22 15:30:00,
2013-12-22 09:45:00,54.2,53.0,29.98,WSW,253,2.0,-999.0,96,-99.99,,,0.90,weatherlink.com 1.10,2013-12-22 15:45:00,
2013-12-22 10:00:00,54.2,53.0,29.94,WNW,289,0.0,-999.0,96,-99.99,,,0.90,weatherlink.com 1.10,2013-12-22 16:00:00,
2013-12-22 10:15:00,54.4,53.0,29.96,WNW,289,0.0,-999.0,96,-99.99,,,0.90,weatherlink.com 1.10,2013-12-22 16:15:00,
2013-12-22 10:30:00,54.8,54.0,29.95,WNW,289,0.0,-999.0,97,-99.99,,,0.90,weatherlink.com 1.10,2013-12-22 16:30:00,
2013-12-22 10:45:00,55.0,54.0,29.95,WNW,289,0.0,-999.0,97,-99.99,,,0.90,weatherlink.com 1.10,2013-12-22 16:45:00,
2013-12-22 11:00:00,55.1,54.0,29.95,WNW,289,0.0,-999.0,97,-99.99,,,0.90,weatherlink.com 1.10,2013-12-22 17:00:00,
2013-12-22 11:15:00,55.3,54.0,29.95,WNW,289,0.0,-999.0,96,-99.99,,,0.90,weatherlink.com 1.10,2013-12-22 17:15:00,
2013-12-22 11:30:00,55.5,54.0,29.96,WNW,289,0.0,-999.0,96,-99.99,,,0.90,weatherlink.com 1.10,2013-12-22 17:30:00,
2013-12-22 11:45:00,55.5,54.0,29.97,SSE,157,2.0,-999.0,96,-99.99,,,0.90,weatherlink.com 1.10,2013-12-22 17:45:00,
2013-12-22 12:00:00,55.3,54.0,29.95,SSE,157,1.0,-999.0,96,-99.99,,,0.90,weatherlink.com 1.10,2013-12-22 18:00:00,
2013-12-22 12:15:00,55.5,54.0,29.95,WNW,290,1.0,-999.0,96,-99.99,,,0.90,weatherlink.com 1.10,2013-12-22 18:15:00,
2013-12-22 12:30:00,55.5,54.0,29.93,WNW,287,0.0,-999.0,95,-99.99,,,0.90,weatherlink.com 1.10,2013-12-22 18:30:00,
2013-12-22 12:45:00,55.6,54.0,29.97,WSW,248,0.0,-999.0,95,-99.99,,,0.90,weatherlink.com 1.10,2013-12-22 18:45:00,
2013-12-22 13:00:00,55.8,54.0,29.97,South,189,0.0,-999.0,95,-99.99,,,0.90,weatherlink.com 1.10,2013-12-22 19:00:00,
2013-12-22 13:15:00,55.9,55.0,29.95,SE,140,2.0,-999.0,95,-99.99,,,0.90,weatherlink.com 1.10,2013-12-22 19:15:00,
2013-12-22 13:30:00,56.0,54.0,29.97,SSW,206,2.0,-999.0,94,-99.99,,,0.90,weatherlink.com 1.10,2013-12-22 19:30:00,
2013-12-22 13:45:00,55.9,54.0,29.96,SSW,192,2.0,-999.0,94,-99.99,,,0.90,weatherlink.com 1.10,2013-12-22 19:45:00,
2013-12-22 14:00:00,55.9,54.0,29.95,SSW,194,2.0,-999.0,94,-99.99,,,0.90,weatherlink.com 1.10,2013-12-22 20:00:00,
2013-12-22 14:15:00,55.8,54.0,29.94,SW,235,0.0,-999.0,93,-99.99,,,0.90,weatherlink.com 1.10,2013-12-22 20:15:00,
2013-12-22 14:30:00,55.8,54.0,29.96,SW,235,0.0,-999.0,94,-99.99,,,0.90,weatherlink.com 1.10,2013-12-22 20:30:00,
2013-12-22 14:45:00,55.8,54.0,29.95,SSE,167,1.0,-999.0,94,-99.99,,,0.90,weatherlink.com 1.10,2013-12-22 20:45:00,
2013-12-22 15:00:00,55.7,54.0,29.97,WSW,242,1.0,-999.0,93,-99.99,,,0.90,weatherlink.com 1.10,2013-12-22 21:00:00,
2013-12-22 15:15:00,55.8,54.0,29.97,WSW,243,0.0,-999.0,94,-99.99,,,0.90,weatherlink.com 1.10,2013-12-22 21:15:00,
2013-12-22 15:30:00,55.9,54.0,29.97,South,172,1.0,-999.0,94,-99.99,,,0.90,weatherlink.com 1.10,2013-12-22 21:30:00,
2013-12-22 15:45:00,55.8,54.0,29.98,WSW,244,0.0,-999.0,94,-99.99,,,0.90,weatherlink.com 1.10,2013-12-22 21:45:00,
2013-12-22 16:00:00,55.7,54.0,29.97,WSW,244,0.0,-999.0,94,-99.99,,,0.90,weatherlink.com 1.10,2013-12-22 22:00:00,
2013-12-22 16:15:00,55.6,54.0,29.97,SW,218,0.0,-999.0,94,-99.99,,,0.90,weatherlink.com 1.10,2013-12-22 22:15:00,
2013-12-22 16:30:00,55.4,54.0,30.00,SW,218,0.0,-999.0,94,-99.99,,,0.90,weatherlink.com 1.10,2013-12-22 22:30:00,
2013-12-22 16:45:00,55.4,54.0,30.01,SW,218,0.0,-999.0,95,-99.99,,,0.90,weatherlink.com 1.10,2013-12-22 22:45:00,
2013-12-22 17:00:00,55.3,54.0,30.01,SW,218,0.0,-999.0,95,-99.99,,,0.90,weatherlink.com 1.10,2013-12-22 23:00:00,
2013-12-22 17:15:00,55.2,54.0,29.99,SW,218,0.0,-999.0,95,-99.99,,,0.90,weatherlink.com 1.10,2013-12-22 23:15:00,
2013-12-22 17:30:00,55.0,54.0,30.00,SW,218,0.0,-999.0,95,-99.99,,,0.90,weatherlink.com 1.10,2013-12-22 23:30:00,
2013-12-22 17:45:00,54.9,54.0,30.00,SW,218,1.0,-999.0,95,-99.99,,,0.90,weatherlink.com 1.10,2013-12-22 23:45:00,
2013-12-22 18:00:00,54.8,53.0,30.01,SW,218,0.0,-999.0,95,-99.99,,,0.90,weatherlink.com 1.10,2013-12-23 00:00:00,
2013-12-22 18:15:00,54.6,53.0,29.99,SW,218,0.0,-999.0,95,-99.99,,,0.90,weatherlink.com 1.10,2013-12-23 00:15:00,
2013-12-22 18:30:00,54.5,53.0,30.02,SW,218,0.0,-999.0,95,-99.99,,,0.90,weatherlink.com 1.10,2013-12-23 00:30:00,
2013-12-22 18:45:00,54.4,53.0,30.03,SW,218,0.0,-999.0,96,-99.99,,,0.90,weatherlink.com 1.10,2013-12-23 00:45:00,
2013-12-22 19:00:00,54.3,53.0,30.02,SE,138,5.0,-999.0,96,-99.99,,,0.90,weatherlink.com 1.10,2013-12-23 01:00:00,
2013-12-22 19:15:00,54.2,53.0,30.03,SE,140,0.0,-999.0,96,-99.99,,,0.90,weatherlink.com 1.10,2013-12-23 01:15:00,
2013-12-22 19:30:00,54.2,53.0,30.03,SE,140,4.0,-999.0,96,-99.99,,,0.90,weatherlink.com 1.10,2013-12-23 01:30:00,
2013-12-22 19:45:00,54.0,53.0,30.01,SE,139,7.0,-999.0,96,-99.99,,,0.90,weatherlink.com 1.10,2013-12-23 01:45:00,
2013-12-22 20:00:00,54.2,53.0,30.04,SSW,211,0.0,-999.0,96,-99.99,,,0.90,weatherlink.com 1.10,2013-12-23 02:00:00,
2013-12-22 20:15:00,54.1,53.0,30.05,WSW,253,1.0,-999.0,96,-99.99,,,0.90,weatherlink.com 1.10,2013-12-23 02:15:00,
2013-12-22 20:30:00,54.0,53.0,30.06,SW,226,2.0,-999.0,96,-99.99,,,0.90,weatherlink.com 1.10,2013-12-23 02:30:00,
2013-12-22 20:45:00,53.9,53.0,30.07,West,274,0.0,-999.0,96,-99.99,,,0.90,weatherlink.com 1.10,2013-12-23 02:45:00,
2013-12-22 21:00:00,53.7,52.0,30.03,SSE,149,0.0,-999.0,95,-99.99,,,0.91,weatherlink.com 1.10,2013-12-23 03:00:00,
2013-12-22 21:16:00,53.7,53.0,30.05,West,275,0.0,-999.0,96,-99.99,,,0.91,weatherlink.com 1.10,2013-12-23 03:16:00,
2013-12-22 21:31:00,53.7,53.0,30.04,West,275,0.0,-999.0,96,-99.99,,,0.92,weatherlink.com 1.10,2013-12-23 03:31:00,
2013-12-22 21:46:00,53.6,53.0,30.05,West,275,0.0,-999.0,96,-99.99,,,0.95,weatherlink.com 1.10,2013-12-23 03:46:00,
2013-12-22 22:01:00,53.5,52.0,30.04,SSW,205,0.0,-999.0,96,-99.99,,,0.97,weatherlink.com 1.10,2013-12-23 04:01:00,
2013-12-22 22:16:00,53.5,52.0,30.06,South,173,0.0,-999.0,96,-99.99,,,0.98,weatherlink.com 1.10,2013-12-23 04:16:00,
2013-12-22 22:31:00,53.5,52.0,30.07,South,173,0.0,-999.0,96,-99.99,,,1.01,weatherlink.com 1.10,2013-12-23 04:31:00,
2013-12-22 22:46:00,53.5,52.0,30.08,SW,223,0.0,-999.0,96,-99.99,,,1.02,weatherlink.com 1.10,2013-12-23 04:46:00,
2013-12-22 23:01:00,53.5,52.0,30.09,SW,236,0.0,-999.0,96,-99.99,,,1.03,weatherlink.com 1.10,2013-12-23 05:01:00,
2013-12-22 23:16:00,53.4,52.0,30.07,SW,236,0.0,-999.0,96,-99.99,,,1.03,weatherlink.com 1.10,2013-12-23 05:16:00,
2013-12-22 23:31:00,53.3,52.0,30.06,SW,236,2.0,-999.0,96,-99.99,,,1.03,weatherlink.com 1.10,2013-12-23 05:31:00,
2013-12-22 23:46:00,53.2,52.0,30.06,SW,236,0.0,-999.0,97,-99.99,,,1.03,weatherlink.com 1.10,2013-12-23 05:46:00,